Home   Weather   Cuiabá   Past weeks

Flag for Brazil Past Weather in Cuiabá, Mato Grosso, Brazil — Yesterday and Last 2 Weeks

Now
91 °F

Scattered clouds.


Feels Like: 99 °F
Forecast: 72 / 90 °F
Wind: 12 mph from Northwest

Location: Cuiaba Aeroporto

Current Time: Dec 8, 2016 at 3:05:44 pm

Latest Report: Dec 8, 2016 at 2:00 pm


Visibility: N/A

Pressure: 29.80 "Hg

Humidity: 52%

Dew Point: 72 °F

Location of CuiabáLocation

Past Weather in Cuiabá — Graph

°F

Cuiabá Temperature Yesterday

Maximum temperature yesterday: 93 °F (at 1:00 pm)
Minimum temperature yesterday: 73 °F (at 6:00 pm)
Average temperature yesterday: 82 °F

High & Low Weather Summary for the Past Weeks

 TemperatureHumidityPressure
High95 °F (Nov 26, 4:00 pm)94% (Nov 24, 5:00 am)29.98 "Hg (Nov 24, 5:00 am)
Low73 °F (Nov 27, 6:00 am)39% (Nov 28, 2:00 pm)29.15 "Hg (Dec 5, 6:00 am)
Average82 °F73%29.85 "Hg
* Reported Nov 23 2:00 pm — Dec 8 2:00 pm, Cuiabá, Weather by CustomWeather, © 2016

Note: Actual official high and low records may vary slightly from our data, if they occured in-between our weather recording intervals... More about our weather records

Advertising

Cuiabá Weather History for the Previous 24 Hours

Scroll right to see more
 ConditionsComfort  
Time TempWeatherWind HumidityBarometerVisibility
2:00 pm
Thu, Dec 8
91 °FScattered clouds.12 mph52%29.80 "HgN/A
1:00 pm91 °FScattered clouds.9 mph52%29.83 "HgN/A
12:00 pm88 °FSunny.9 mph59%29.86 "Hg10 mi
11:00 am86 °FSunny.10 mph62%29.89 "Hg10 mi
10:00 am84 °FSunny.9 mph66%29.89 "Hg10 mi
9:00 am81 °FSunny.12 mph74%29.86 "Hg10 mi
8:00 am79 °FSunny.7 mph79%29.86 "Hg10 mi
7:00 am77 °FSunny.9 mph83%29.83 "Hg10 mi
6:00 am75 °FPassing clouds.8 mph89%29.83 "HgN/A
5:00 am75 °FClear.8 mph89%29.83 "Hg10 mi
4:00 am75 °FPassing clouds.7 mph89%29.80 "HgN/A
3:00 am77 °FPassing clouds.7 mph83%29.80 "HgN/A
2:00 am77 °FPartly cloudy.12 mph83%29.83 "HgN/A
1:00 am77 °FPassing clouds.10 mph83%29.86 "HgN/A
12:00 am77 °FPassing clouds.8 mph83%29.89 "HgN/A
11:00 pm
Wed, Dec 7
77 °FPassing clouds.2 mph89%29.89 "HgN/A
10:00 pm75 °FPassing clouds.3 mph94%29.86 "HgN/A
9:00 pm77 °FPartly cloudy.2 mph89%29.86 "HgN/A
8:00 pm77 °FPartly cloudy.5 mph89%29.80 "HgN/A
7:00 pm75 °FBroken clouds.3 mph89%29.80 "HgN/A
6:00 pm73 °FStrong thunderstorms. Partly sunny.14 mph94%N/A1 mi
5:00 pm84 °FThunderstorms. Broken clouds.8 mph70%N/A3 mi
4:00 pm86 °FBroken clouds.3 mph70%29.74 "HgN/A
3:00 pm93 °FBroken clouds.8 mph47%29.77 "HgN/A
Weather by CustomWeather, © 2016

See weather overviewHow to use our weather pages